Time,TemperatureF,DewpointF,PressureIn,WindDirection,WindDirectionDegrees,WindSpeedMPH,WindSpeedGustMPH,Humidity,HourlyPrecipIn,Conditions,Clouds,dailyrainin,SoftwareType,DateUTC
2013-06-23 00:00:00,49.3,47.5,25.63,SE,135,1.4,3.0,95,0.00,,,0.00,Rainwise IP-100,2013-06-23 07:00:00,
2013-06-23 00:05:00,49.6,48.0,25.63,SE,135,0.0,3.3,95,0.00,,,0.00,Rainwise IP-100,2013-06-23 07:05:00,
2013-06-23 00:10:00,49.9,48.0,25.63,SE,135,0.0,4.0,94,0.00,,,0.00,Rainwise IP-100,2013-06-23 07:10:00,
2013-06-23 00:15:00,50.3,48.0,25.63,SE,135,0.0,4.0,93,0.00,,,0.00,Rainwise IP-100,2013-06-23 07:15:00,
2013-06-23 00:20:00,50.5,48.0,25.63,SE,135,0.0,4.2,92,0.00,,,0.00,Rainwise IP-100,2013-06-23 07:20:00,
2013-06-23 00:25:00,50.7,48.0,25.63,SE,135,2.3,3.7,91,0.00,,,0.00,Rainwise IP-100,2013-06-23 07:25:00,
2013-06-23 00:30:00,50.8,49.0,25.62,NNE,22,0.0,4.0,91,0.00,,,0.00,Rainwise IP-100,2013-06-23 07:30:00,
2013-06-23 00:35:00,50.7,48.0,25.62,SE,135,0.0,3.5,91,0.00,,,0.00,Rainwise IP-100,2013-06-23 07:35:00,
2013-06-23 00:40:00,50.8,48.0,25.63,SE,135,2.6,3.5,90,0.00,,,0.00,Rainwise IP-100,2013-06-23 07:40:00,
2013-06-23 00:45:00,51.0,48.0,25.63,SE,135,2.6,4.4,89,0.00,,,0.00,Rainwise IP-100,2013-06-23 07:45:00,
2013-06-23 00:50:00,51.0,48.0,25.62,SSE,157,2.3,3.3,89,0.00,,,0.00,Rainwise IP-100,2013-06-23 07:50:00,
2013-06-23 00:55:00,51.1,47.5,25.62,SE,135,0.0,3.5,88,0.00,,,0.00,Rainwise IP-100,2013-06-23 07:55:00,
2013-06-23 01:00:00,51.1,47.5,25.62,ENE,67,0.0,5.6,88,0.00,,,0.00,Rainwise IP-100,2013-06-23 08:00:00,
2013-06-23 01:05:00,51.2,47.5,25.62,ESE,112,0.0,3.5,88,0.00,,,0.00,Rainwise IP-100,2013-06-23 08:05:00,
2013-06-23 01:10:00,51.1,47.5,25.62,SE,135,0.0,2.8,88,0.00,,,0.00,Rainwise IP-100,2013-06-23 08:10:00,
2013-06-23 01:15:00,51.0,47.5,25.61,SE,135,1.2,3.0,88,0.00,,,0.00,Rainwise IP-100,2013-06-23 08:15:00,
2013-06-23 01:20:00,50.9,48.0,25.62,SE,135,0.0,2.6,89,0.00,,,0.00,Rainwise IP-100,2013-06-23 08:20:00,
2013-06-23 01:25:00,50.8,48.0,25.62,SE,135,0.0,2.8,89,0.00,,,0.00,Rainwise IP-100,2013-06-23 08:25:00,
2013-06-23 01:30:00,50.7,47.5,25.61,SE,135,0.0,2.3,90,0.00,,,0.00,Rainwise IP-100,2013-06-23 08:30:00,
2013-06-23 01:35:00,50.7,47.5,25.61,SE,135,0.0,1.9,90,0.00,,,0.00,Rainwise IP-100,2013-06-23 08:35:00,
2013-06-23 01:37:00,50.7,47.5,25.61,SE,135,2.1,2.3,90,0.00,,,0.00,Rainwise IP-100,2013-06-23 08:37:00,
2013-06-23 01:42:00,50.6,47.5,25.61,SE,135,2.6,2.8,90,0.00,,,0.00,Rainwise IP-100,2013-06-23 08:42:00,
2013-06-23 01:47:00,50.5,48.0,25.61,SE,135,1.9,3.3,91,0.00,,,0.00,Rainwise IP-100,2013-06-23 08:47:00,
2013-06-23 01:52:00,50.5,48.0,25.61,SE,135,1.6,2.6,91,0.00,,,0.00,Rainwise IP-100,2013-06-23 08:52:00,
2013-06-23 01:57:00,50.5,48.0,25.60,SE,135,0.0,2.8,91,0.00,,,0.00,Rainwise IP-100,2013-06-23 08:57:00,
2013-06-23 02:02:00,50.7,47.5,25.60,SE,135,1.6,3.0,90,0.00,,,0.00,Rainwise IP-100,2013-06-23 09:02:00,
2013-06-23 02:07:00,50.8,48.0,25.61,SE,135,0.0,2.6,90,0.00,,,0.00,Rainwise IP-100,2013-06-23 09:07:00,
2013-06-23 02:12:00,50.8,48.0,25.60,SE,135,1.9,3.5,90,0.00,,,0.00,Rainwise IP-100,2013-06-23 09:12:00,
2013-06-23 02:17:00,50.8,48.0,25.61,SE,135,1.4,3.5,90,0.00,,,0.00,Rainwise IP-100,2013-06-23 09:17:00,
2013-06-23 02:22:00,50.9,48.0,25.60,SE,135,0.0,3.5,89,0.00,,,0.00,Rainwise IP-100,2013-06-23 09:22:00,
2013-06-23 02:27:00,50.9,48.0,25.60,SE,135,0.0,3.7,89,0.00,,,0.00,Rainwise IP-100,2013-06-23 09:27:00,
2013-06-23 02:32:00,51.0,47.5,25.60,SE,135,0.0,3.3,88,0.00,,,0.00,Rainwise IP-100,2013-06-23 09:32:00,
2013-06-23 02:37:00,50.8,48.0,25.60,SE,135,1.4,2.8,89,0.00,,,0.00,Rainwise IP-100,2013-06-23 09:37:00,
2013-06-23 02:42:00,50.7,47.5,25.60,SE,135,1.6,3.0,89,0.00,,,0.00,Rainwise IP-100,2013-06-23 09:42:00,
2013-06-23 02:47:00,50.7,47.5,25.60,SE,135,0.0,2.3,89,0.00,,,0.00,Rainwise IP-100,2013-06-23 09:47:00,
2013-06-23 02:52:00,50.5,47.5,25.59,SE,135,0.0,2.6,89,0.00,,,0.00,Rainwise IP-100,2013-06-23 09:52:00,
2013-06-23 02:57:00,50.4,47.5,25.59,SE,135,0.0,1.9,90,0.00,,,0.00,Rainwise IP-100,2013-06-23 09:57:00,
2013-06-23 03:02:00,50.2,47.5,25.59,SE,135,0.0,2.3,91,0.00,,,0.00,Rainwise IP-100,2013-06-23 10:02:00,
2013-06-23 03:07:00,50.0,47.5,25.59,SSW,202,0.0,2.3,91,0.00,,,0.00,Rainwise IP-100,2013-06-23 10:07:00,
2013-06-23 03:12:00,50.0,47.5,25.59,SSW,202,2.8,2.8,92,0.00,,,0.00,Rainwise IP-100,2013-06-23 10:12:00,
2013-06-23 03:17:00,50.0,47.5,25.59,SSE,157,0.0,3.7,91,0.00,,,0.00,Rainwise IP-100,2013-06-23 10:17:00,
2013-06-23 03:22:00,50.0,47.5,25.59,SSW,202,0.0,4.0,91,0.00,,,0.00,Rainwise IP-100,2013-06-23 10:22:00,
2013-06-23 03:27:00,49.9,47.5,25.59,SSW,202,0.0,1.4,92,0.00,,,0.00,Rainwise IP-100,2013-06-23 10:27:00,
2013-06-23 03:32:00,49.7,47.5,25.59,SSE,157,0.0,2.3,92,0.00,,,0.00,Rainwise IP-100,2013-06-23 10:32:00,
2013-06-23 03:37:00,49.8,47.5,25.59,SSE,157,2.1,3.5,91,0.00,,,0.00,Rainwise IP-100,2013-06-23 10:37:00,
2013-06-23 03:42:00,50.2,47.0,25.59,SSE,157,1.4,2.8,90,0.00,,,0.00,Rainwise IP-100,2013-06-23 10:42:00,
2013-06-23 03:47:00,50.5,47.5,25.58,SSE,157,0.0,2.6,88,0.00,,,0.00,Rainwise IP-100,2013-06-23 10:47:00,
2013-06-23 03:52:00,50.5,47.5,25.58,South,180,0.0,2.1,88,0.00,,,0.00,Rainwise IP-100,2013-06-23 10:52:00,
2013-06-23 03:57:00,50.3,47.5,25.59,SSE,157,0.0,1.6,89,0.00,,,0.00,Rainwise IP-100,2013-06-23 10:57:00,
2013-06-23 04:02:00,50.3,47.5,25.58,SSE,157,0.0,2.6,89,0.00,,,0.00,Rainwise IP-100,2013-06-23 11:02:00,
2013-06-23 04:07:00,50.4,47.5,25.58,SSE,157,1.2,1.9,88,0.00,,,0.00,Rainwise IP-100,2013-06-23 11:07:00,
2013-06-23 04:12:00,50.3,47.5,25.59,SSE,157,0.0,1.4,89,0.00,,,0.00,Rainwise IP-100,2013-06-23 11:12:00,
2013-06-23 04:17:00,50.1,47.0,25.59,SSW,202,0.0,1.9,89,0.00,,,0.00,Rainwise IP-100,2013-06-23 11:17:00,
2013-06-23 04:22:00,50.1,47.0,25.58,SSW,202,0.0,0.0,89,0.00,,,0.00,Rainwise IP-100,2013-06-23 11:22:00,
2013-06-23 04:27:00,50.1,47.0,25.58,SSW,202,0.0,0.0,89,0.00,,,0.00,Rainwise IP-100,2013-06-23 11:27:00,
2013-06-23 04:32:00,50.1,47.0,25.58,SSW,202,0.0,2.6,89,0.00,,,0.00,Rainwise IP-100,2013-06-23 11:32:00,
2013-06-23 04:37:00,50.0,47.0,25.58,SSW,202,0.0,0.0,90,0.00,,,0.00,Rainwise IP-100,2013-06-23 11:37:00,
2013-06-23 04:42:00,49.9,47.5,25.58,SSW,202,0.0,0.0,91,0.00,,,0.00,Rainwise IP-100,2013-06-23 11:42:00,
2013-06-23 04:47:00,49.7,47.5,25.58,SSW,202,0.0,0.0,91,0.00,,,0.00,Rainwise IP-100,2013-06-23 11:47:00,
2013-06-23 04:52:00,49.6,47.5,25.58,SSW,202,0.0,0.0,92,0.00,,,0.00,Rainwise IP-100,2013-06-23 11:52:00,
2013-06-23 04:57:00,49.6,47.5,25.58,SSW,202,0.0,0.0,92,0.00,,,0.00,Rainwise IP-100,2013-06-23 11:57:00,
2013-06-23 05:02:00,49.5,47.5,25.58,SSW,202,0.0,0.0,93,0.00,,,0.00,Rainwise IP-100,2013-06-23 12:02:00,
2013-06-23 05:07:00,49.5,47.5,25.58,SE,135,0.0,2.6,92,0.00,,,0.00,Rainwise IP-100,2013-06-23 12:07:00,
2013-06-23 05:12:00,49.5,47.5,25.58,SE,135,1.4,1.9,92,0.00,,,0.00,Rainwise IP-100,2013-06-23 12:12:00,
2013-06-23 05:17:00,49.5,47.5,25.58,SE,135,1.9,2.3,92,0.00,,,0.00,Rainwise IP-100,2013-06-23 12:17:00,
2013-06-23 05:22:00,49.5,47.5,25.58,SE,135,0.0,2.3,92,0.00,,,0.00,Rainwise IP-100,2013-06-23 12:22:00,
2013-06-23 05:27:00,49.6,47.5,25.58,East,90,0.0,1.6,91,0.00,,,0.00,Rainwise IP-100,2013-06-23 12:27:00,
2013-06-23 05:32:00,49.7,47.5,25.58,ESE,112,0.0,2.6,91,0.00,,,0.00,Rainwise IP-100,2013-06-23 12:32:00,
2013-06-23 05:37:00,49.7,47.5,25.57,ESE,112,1.2,1.6,91,0.00,,,0.00,Rainwise IP-100,2013-06-23 12:37:00,
2013-06-23 05:42:00,49.5,47.5,25.57,SSE,157,0.0,2.1,92,0.00,,,0.00,Rainwise IP-100,2013-06-23 12:42:00,
2013-06-23 05:47:00,49.3,47.5,25.57,South,180,0.0,1.9,93,0.00,,,0.00,Rainwise IP-100,2013-06-23 12:47:00,
2013-06-23 05:52:00,49.2,47.5,25.57,SSW,202,0.0,4.4,93,0.00,,,0.00,Rainwise IP-100,2013-06-23 12:52:00,
2013-06-23 05:57:00,49.1,47.5,25.57,SSW,202,0.0,1.4,94,0.00,,,0.00,Rainwise IP-100,2013-06-23 12:57:00,
2013-06-23 06:02:00,49.1,47.5,25.57,SSW,202,3.3,3.3,93,0.00,,,0.00,Rainwise IP-100,2013-06-23 13:02:00,
2013-06-23 06:07:00,49.1,47.0,25.57,SSW,202,0.0,4.2,92,0.00,,,0.00,Rainwise IP-100,2013-06-23 13:07:00,
2013-06-23 06:12:00,49.1,47.0,25.57,South,180,0.0,1.4,92,0.00,,,0.00,Rainwise IP-100,2013-06-23 13:12:00,
2013-06-23 06:17:00,49.2,47.5,25.57,South,180,0.0,1.6,93,0.00,,,0.00,Rainwise IP-100,2013-06-23 13:17:00,
2013-06-23 06:22:00,49.3,47.5,25.57,SSW,202,0.0,1.9,93,0.00,,,0.00,Rainwise IP-100,2013-06-23 13:22:00,
2013-06-23 06:27:00,49.4,47.5,25.57,SSW,202,0.0,0.0,94,0.00,,,0.00,Rainwise IP-100,2013-06-23 13:27:00,
2013-06-23 06:32:00,49.5,48.0,25.56,SE,135,0.0,1.9,94,0.00,,,0.00,Rainwise IP-100,2013-06-23 13:32:00,
2013-06-23 06:37:00,49.8,47.5,25.57,SE,135,1.2,2.3,93,0.00,,,0.00,Rainwise IP-100,2013-06-23 13:37:00,
2013-06-23 06:42:00,50.1,47.5,25.56,SSE,157,2.1,2.6,92,0.00,,,0.00,Rainwise IP-100,2013-06-23 13:42:00,
2013-06-23 06:47:00,50.4,48.0,25.56,SE,135,2.3,2.6,91,0.00,,,0.00,Rainwise IP-100,2013-06-23 13:47:00,
2013-06-23 06:52:00,50.7,47.5,25.57,SE,135,0.0,2.6,89,0.00,,,0.00,Rainwise IP-100,2013-06-23 13:52:00,
2013-06-23 06:57:00,50.9,47.5,25.56,SE,135,0.0,2.8,88,0.00,,,0.00,Rainwise IP-100,2013-06-23 13:57:00,
2013-06-23 07:00:00,51.0,47.5,25.56,SE,135,0.0,2.8,88,0.00,,,0.00,Rainwise IP-100,2013-06-23 14:00:00,
2013-06-23 07:05:00,51.4,47.5,25.56,SE,135,1.6,2.6,87,0.00,,,0.00,Rainwise IP-100,2013-06-23 14:05:00,
2013-06-23 07:10:00,51.6,48.0,25.56,SE,135,2.1,2.3,87,0.00,,,0.00,Rainwise IP-100,2013-06-23 14:10:00,
2013-06-23 07:15:00,51.8,48.0,25.56,SE,135,2.1,2.6,87,0.00,,,0.00,Rainwise IP-100,2013-06-23 14:15:00,
2013-06-23 07:20:00,52.0,48.0,25.56,SE,135,1.4,2.6,86,0.00,,,0.00,Rainwise IP-100,2013-06-23 14:20:00,
2013-06-23 07:25:00,52.2,47.5,25.56,SSE,157,0.0,3.3,85,0.00,,,0.00,Rainwise IP-100,2013-06-23 14:25:00,
2013-06-23 07:30:00,52.5,47.5,25.56,SE,135,1.2,2.8,83,0.00,,,0.00,Rainwise IP-100,2013-06-23 14:30:00,
2013-06-23 07:35:00,52.7,47.5,25.56,SE,135,0.0,4.0,82,0.00,,,0.00,Rainwise IP-100,2013-06-23 14:35:00,
2013-06-23 07:40:00,52.9,47.5,25.55,SE,135,1.2,2.6,82,0.00,,,0.00,Rainwise IP-100,2013-06-23 14:40:00,
2013-06-23 07:45:00,53.1,47.0,25.55,SE,135,1.2,4.9,81,0.00,,,0.00,Rainwise IP-100,2013-06-23 14:45:00,
2013-06-23 07:50:00,53.3,47.5,25.56,SSW,202,0.0,3.5,81,0.00,,,0.00,Rainwise IP-100,2013-06-23 14:50:00,
2013-06-23 07:55:00,53.4,47.5,25.56,ESE,112,0.0,2.8,81,0.00,,,0.00,Rainwise IP-100,2013-06-23 14:55:00,
2013-06-23 08:00:00,53.4,47.5,25.56,SSE,157,1.9,5.8,81,0.00,,,0.00,Rainwise IP-100,2013-06-23 15:00:00,
2013-06-23 08:05:00,53.7,47.0,25.56,SSW,202,1.4,6.5,78,0.00,,,0.00,Rainwise IP-100,2013-06-23 15:05:00,
2013-06-23 08:10:00,54.0,47.0,25.56,SSW,202,1.4,6.3,76,0.00,,,0.00,Rainwise IP-100,2013-06-23 15:10:00,
2013-06-23 08:15:00,54.3,47.5,25.56,SSE,157,0.0,3.3,77,0.00,,,0.00,Rainwise IP-100,2013-06-23 15:15:00,
2013-06-23 08:20:00,54.5,47.5,25.56,SSW,202,2.3,5.6,77,0.00,,,0.00,Rainwise IP-100,2013-06-23 15:20:00,
2013-06-23 08:25:00,54.6,47.5,25.55,SW,225,1.9,3.0,77,0.00,,,0.00,Rainwise IP-100,2013-06-23 15:25:00,
2013-06-23 08:30:00,54.7,47.5,25.55,SSW,202,0.0,2.1,77,0.00,,,0.00,Rainwise IP-100,2013-06-23 15:30:00,
2013-06-23 08:35:00,54.7,47.5,25.55,SE,135,3.0,3.0,77,0.00,,,0.00,Rainwise IP-100,2013-06-23 15:35:00,
2013-06-23 08:40:00,54.6,48.0,25.55,SE,135,0.0,3.0,78,0.00,,,0.00,Rainwise IP-100,2013-06-23 15:40:00,
2013-06-23 08:45:00,54.4,48.0,25.55,SE,135,0.0,1.6,80,0.00,,,0.00,Rainwise IP-100,2013-06-23 15:45:00,
2013-06-23 08:50:00,54.2,48.0,25.55,ESE,112,0.0,2.3,82,0.00,,,0.00,Rainwise IP-100,2013-06-23 15:50:00,
2013-06-23 08:55:00,53.7,48.0,25.55,ESE,112,0.0,1.9,84,0.00,,,0.00,Rainwise IP-100,2013-06-23 15:55:00,
2013-06-23 09:00:00,53.6,49.0,25.55,SSW,202,2.1,2.6,86,0.00,,,0.00,Rainwise IP-100,2013-06-23 16:00:00,
2013-06-23 09:05:00,53.7,49.0,25.55,SSW,202,1.6,4.9,85,0.00,,,0.00,Rainwise IP-100,2013-06-23 16:05:00,
2013-06-23 09:10:00,54.1,49.0,25.54,SSW,202,0.0,3.7,83,0.00,,,0.00,Rainwise IP-100,2013-06-23 16:10:00,
2013-06-23 09:15:00,54.4,49.0,25.55,SSW,202,2.6,3.0,81,0.00,,,0.00,Rainwise IP-100,2013-06-23 16:15:00,
2013-06-23 09:20:00,54.7,49.0,25.54,SE,135,0.0,3.5,81,0.00,,,0.00,Rainwise IP-100,2013-06-23 16:20:00,
2013-06-23 09:25:00,55.0,49.0,25.54,SSW,202,0.0,6.5,80,0.00,,,0.00,Rainwise IP-100,2013-06-23 16:25:00,
2013-06-23 09:30:00,55.2,48.0,25.54,SSW,202,6.1,6.1,78,0.00,,,0.00,Rainwise IP-100,2013-06-23 16:30:00,
2013-06-23 09:35:00,55.3,48.0,25.54,SSW,202,3.7,6.3,77,0.00,,,0.00,Rainwise IP-100,2013-06-23 16:35:00,
2013-06-23 09:40:00,55.5,49.0,25.54,SSW,202,1.4,6.5,77,0.00,,,0.00,Rainwise IP-100,2013-06-23 16:40:00,
2013-06-23 09:45:00,55.6,48.0,25.54,SSW,202,2.8,6.5,76,0.00,,,0.00,Rainwise IP-100,2013-06-23 16:45:00,
2013-06-23 09:50:00,55.8,48.0,25.54,SSW,202,7.2,8.9,76,0.00,,,0.00,Rainwise IP-100,2013-06-23 16:50:00,
2013-06-23 09:55:00,55.9,48.0,25.54,SSE,157,1.4,7.7,76,0.00,,,0.00,Rainwise IP-100,2013-06-23 16:55:00,
2013-06-23 09:57:00,56.0,48.0,25.54,SE,135,0.0,4.4,76,0.00,,,0.00,Rainwise IP-100,2013-06-23 16:57:00,
2013-06-23 10:01:00,56.2,48.0,25.54,SSW,202,1.6,5.4,76,0.00,,,0.00,Rainwise IP-100,2013-06-23 17:01:00,
2013-06-23 10:02:00,56.2,48.0,25.54,SSW,202,5.4,5.6,76,0.00,,,0.00,Rainwise IP-100,2013-06-23 17:02:00,
2013-06-23 10:07:00,56.3,49.0,25.53,ESE,112,2.6,5.6,75,0.00,,,0.00,Rainwise IP-100,2013-06-23 17:07:00,
2013-06-23 10:12:00,56.4,48.0,25.53,SSW,202,0.0,6.8,74,0.00,,,0.00,Rainwise IP-100,2013-06-23 17:12:00,
2013-06-23 10:17:00,56.5,48.0,25.54,SSW,202,6.3,6.3,73,0.00,,,0.00,Rainwise IP-100,2013-06-23 17:17:00,
2013-06-23 10:22:00,56.6,48.0,25.53,SSW,202,4.2,6.3,73,0.00,,,0.00,Rainwise IP-100,2013-06-23 17:22:00,
2013-06-23 10:27:00,56.7,48.0,25.54,SSE,157,2.1,4.4,73,0.00,,,0.00,Rainwise IP-100,2013-06-23 17:27:00,
2013-06-23 10:32:00,56.5,48.0,25.53,ENE,67,1.9,7.2,73,0.00,,,0.00,Rainwise IP-100,2013-06-23 17:32:00,
2013-06-23 10:37:00,56.3,48.0,25.53,SE,135,3.5,3.7,73,0.00,,,0.00,Rainwise IP-100,2013-06-23 17:37:00,
2013-06-23 10:42:00,56.2,47.5,25.54,South,180,1.4,5.8,74,0.00,,,0.00,Rainwise IP-100,2013-06-23 17:42:00,
2013-06-23 10:45:00,56.1,47.5,25.53,SSW,202,4.9,7.7,74,0.00,,,0.00,Rainwise IP-100,2013-06-23 17:45:00,
2013-06-23 10:50:00,55.9,47.5,25.53,SE,135,1.4,5.6,74,0.00,,,0.00,Rainwise IP-100,2013-06-23 17:50:00,
2013-06-23 10:55:00,56.0,48.0,25.53,ESE,112,0.0,6.3,75,0.00,,,0.00,Rainwise IP-100,2013-06-23 17:55:00,
2013-06-23 11:00:00,56.2,47.5,25.53,SSW,202,4.2,8.6,74,0.00,,,0.00,Rainwise IP-100,2013-06-23 18:00:00,
2013-06-23 11:05:00,56.2,47.5,25.53,SW,225,3.5,8.6,74,0.00,,,0.00,Rainwise IP-100,2013-06-23 18:05:00,
2013-06-23 11:10:00,56.3,48.0,25.52,SSW,202,6.8,8.4,73,0.00,,,0.00,Rainwise IP-100,2013-06-23 18:10:00,
2013-06-23 11:15:00,56.4,48.0,25.52,SSW,202,4.2,9.8,73,0.00,,,0.00,Rainwise IP-100,2013-06-23 18:15:00,
2013-06-23 11:20:00,56.5,48.0,25.52,SSW,202,9.3,9.3,74,0.00,,,0.00,Rainwise IP-100,2013-06-23 18:20:00,
2013-06-23 11:25:00,56.5,48.0,25.52,SSW,202,3.3,9.3,74,0.00,,,0.00,Rainwise IP-100,2013-06-23 18:25:00,
2013-06-23 11:30:00,56.4,48.0,25.52,SSW,202,5.1,8.6,73,0.00,,,0.00,Rainwise IP-100,2013-06-23 18:30:00,
2013-06-23 11:35:00,56.4,48.0,25.52,WSW,247,4.0,10.5,73,0.00,,,0.00,Rainwise IP-100,2013-06-23 18:35:00,
2013-06-23 11:40:00,56.4,48.0,25.52,SSW,202,4.2,7.5,73,0.00,,,0.00,Rainwise IP-100,2013-06-23 18:40:00,
2013-06-23 11:45:00,56.5,48.0,25.52,WSW,247,2.8,8.6,73,0.00,,,0.00,Rainwise IP-100,2013-06-23 18:45:00,
2013-06-23 11:50:00,56.5,48.0,25.52,SW,225,3.5,6.1,73,0.00,,,0.00,Rainwise IP-100,2013-06-23 18:50:00,
2013-06-23 11:55:00,56.5,48.0,25.52,SW,225,4.7,9.3,74,0.00,,,0.00,Rainwise IP-100,2013-06-23 18:55:00,
2013-06-23 12:00:00,56.5,48.0,25.52,WSW,247,4.2,9.3,74,0.00,,,0.00,Rainwise IP-100,2013-06-23 19:00:00,
2013-06-23 12:05:00,56.5,48.0,25.52,SSW,202,0.0,6.8,74,0.00,,,0.00,Rainwise IP-100,2013-06-23 19:05:00,
2013-06-23 12:10:00,56.7,48.0,25.52,SW,225,3.3,11.0,73,0.00,,,0.00,Rainwise IP-100,2013-06-23 19:10:00,
2013-06-23 12:15:00,56.5,48.0,25.52,SW,225,2.8,9.1,74,0.00,,,0.00,Rainwise IP-100,2013-06-23 19:15:00,
2013-06-23 12:20:00,56.2,48.0,25.52,SSW,202,1.6,7.7,75,0.00,,,0.00,Rainwise IP-100,2013-06-23 19:20:00,
2013-06-23 12:25:00,56.2,48.0,25.52,SSW,202,4.4,6.1,75,0.00,,,0.00,Rainwise IP-100,2013-06-23 19:25:00,
2013-06-23 12:30:00,56.2,48.0,25.52,SSW,202,4.4,6.1,76,0.00,,,0.00,Rainwise IP-100,2013-06-23 19:30:00,
2013-06-23 12:35:00,56.0,49.0,25.51,SSW,202,2.6,8.6,77,0.00,,,0.00,Rainwise IP-100,2013-06-23 19:35:00,
2013-06-23 12:40:00,55.9,49.0,25.51,SSW,202,3.0,9.3,78,0.00,,,0.00,Rainwise IP-100,2013-06-23 19:40:00,
2013-06-23 12:45:00,56.0,50.0,25.51,WSW,247,6.1,6.8,79,0.00,,,0.00,Rainwise IP-100,2013-06-23 19:45:00,
2013-06-23 12:50:00,56.0,49.0,25.51,SSW,202,4.0,7.0,78,0.00,,,0.00,Rainwise IP-100,2013-06-23 19:50:00,
2013-06-23 12:55:00,55.8,49.0,25.51,SSW,202,1.2,6.8,78,0.00,,,0.00,Rainwise IP-100,2013-06-23 19:55:00,
2013-06-23 13:00:00,55.6,50.0,25.51,SW,225,3.5,7.7,79,0.00,,,0.00,Rainwise IP-100,2013-06-23 20:00:00,
2013-06-23 13:05:00,55.4,49.0,25.51,SSW,202,2.6,4.0,79,0.00,,,0.00,Rainwise IP-100,2013-06-23 20:05:00,
2013-06-23 13:10:00,55.1,50.0,25.51,SSE,157,0.0,2.8,81,0.00,,,0.00,Rainwise IP-100,2013-06-23 20:10:00,
2013-06-23 13:15:00,54.3,50.5,25.51,SE,135,1.2,3.3,85,0.06,,,0.01,Rainwise IP-100,2013-06-23 20:15:00,
2013-06-23 13:20:00,53.7,50.0,25.51,SE,135,0.0,2.3,87,0.06,,,0.01,Rainwise IP-100,2013-06-23 20:20:00,
2013-06-23 13:25:00,53.6,50.0,25.51,ESE,112,0.0,2.1,88,0.00,,,0.01,Rainwise IP-100,2013-06-23 20:25:00,
2013-06-23 13:30:00,53.7,50.0,25.51,NW,315,0.0,3.0,87,0.00,,,0.01,Rainwise IP-100,2013-06-23 20:30:00,
2013-06-23 13:35:00,53.6,49.0,25.51,ESE,112,0.0,3.0,85,0.00,,,0.01,Rainwise IP-100,2013-06-23 20:35:00,
2013-06-23 13:40:00,53.4,49.0,25.51,SSW,202,0.0,9.3,86,0.00,,,0.01,Rainwise IP-100,2013-06-23 20:40:00,
2013-06-23 13:45:00,53.3,50.0,25.50,SE,135,0.0,5.4,87,0.00,,,0.01,Rainwise IP-100,2013-06-23 20:45:00,
2013-06-23 13:50:00,52.9,49.0,25.50,SSW,202,2.3,2.8,87,0.00,,,0.01,Rainwise IP-100,2013-06-23 20:50:00,
2013-06-23 13:55:00,52.7,49.0,25.50,SSW,202,0.0,4.0,88,0.06,,,0.02,Rainwise IP-100,2013-06-23 20:55:00,
2013-06-23 14:00:00,52.7,49.0,25.50,SSW,202,0.0,3.7,88,0.06,,,0.02,Rainwise IP-100,2013-06-23 21:00:00,
2013-06-23 14:05:00,52.7,49.0,25.50,SSW,202,3.3,5.6,88,0.00,,,0.02,Rainwise IP-100,2013-06-23 21:05:00,
2013-06-23 14:10:00,52.6,49.0,25.50,SSW,202,0.0,4.9,88,0.00,,,0.02,Rainwise IP-100,2013-06-23 21:10:00,
2013-06-23 14:15:00,52.5,50.0,25.51,South,180,0.0,2.3,89,0.00,,,0.02,Rainwise IP-100,2013-06-23 21:15:00,
2013-06-23 14:20:00,52.2,49.0,25.50,South,180,0.0,1.6,89,0.00,,,0.02,Rainwise IP-100,2013-06-23 21:20:00,
2013-06-23 14:25:00,52.0,49.0,25.50,SSW,202,0.0,3.5,90,0.06,,,0.03,Rainwise IP-100,2013-06-23 21:25:00,
2013-06-23 14:30:00,52.0,49.0,25.50,SSW,202,5.4,5.4,89,0.06,,,0.03,Rainwise IP-100,2013-06-23 21:30:00,
2013-06-23 14:35:00,52.1,49.0,25.50,SSW,202,0.0,5.8,89,0.00,,,0.03,Rainwise IP-100,2013-06-23 21:35:00,
2013-06-23 14:40:00,52.1,49.0,25.50,SSW,202,1.9,2.8,89,0.00,,,0.03,Rainwise IP-100,2013-06-23 21:40:00,
2013-06-23 14:45:00,52.2,49.0,25.50,SSE,157,1.2,4.7,89,0.00,,,0.03,Rainwise IP-100,2013-06-23 21:45:00,
2013-06-23 14:50:00,52.3,49.0,25.49,SSW,202,2.8,4.9,89,0.00,,,0.03,Rainwise IP-100,2013-06-23 21:50:00,
2013-06-23 14:55:00,52.4,48.0,25.50,ESE,112,0.0,5.4,88,0.00,,,0.03,Rainwise IP-100,2013-06-23 21:55:00,
2013-06-23 15:00:00,52.5,49.0,25.49,SE,135,0.0,4.4,88,0.00,,,0.03,Rainwise IP-100,2013-06-23 22:00:00,
2013-06-23 15:05:00,52.6,49.0,25.49,South,180,0.0,5.1,88,0.00,,,0.03,Rainwise IP-100,2013-06-23 22:05:00,
2013-06-23 15:10:00,52.5,49.0,25.49,SE,135,1.2,4.7,88,0.00,,,0.03,Rainwise IP-100,2013-06-23 22:10:00,
2013-06-23 15:15:00,52.3,48.0,25.49,SE,135,1.2,5.8,88,0.00,,,0.03,Rainwise IP-100,2013-06-23 22:15:00,
2013-06-23 15:20:00,52.3,48.0,25.49,South,180,1.6,3.7,88,0.00,,,0.03,Rainwise IP-100,2013-06-23 22:20:00,
2013-06-23 15:25:00,52.1,48.0,25.49,SSW,202,2.8,4.9,88,0.00,,,0.03,Rainwise IP-100,2013-06-23 22:25:00,
2013-06-23 15:30:00,51.9,49.0,25.49,SSW,202,1.6,5.4,89,0.00,,,0.03,Rainwise IP-100,2013-06-23 22:30:00,
2013-06-23 15:35:00,51.8,49.0,25.48,SSW,202,3.3,5.4,89,0.06,,,0.04,Rainwise IP-100,2013-06-23 22:35:00,
2013-06-23 15:40:00,51.8,49.0,25.48,SSW,202,0.0,6.1,90,0.06,,,0.04,Rainwise IP-100,2013-06-23 22:40:00,
2013-06-23 15:45:00,51.9,49.0,25.48,SW,225,2.1,4.9,90,0.00,,,0.04,Rainwise IP-100,2013-06-23 22:45:00,
2013-06-23 15:50:00,52.2,48.0,25.48,SSW,202,0.0,6.3,88,0.00,,,0.04,Rainwise IP-100,2013-06-23 22:50:00,
2013-06-23 15:55:00,52.5,49.0,25.48,SE,135,0.0,3.5,88,0.00,,,0.04,Rainwise IP-100,2013-06-23 22:55:00,
2013-06-23 16:00:00,52.6,50.0,25.48,SSW,202,1.2,3.3,89,0.00,,,0.04,Rainwise IP-100,2013-06-23 23:00:00,
2013-06-23 16:05:00,52.7,50.0,25.48,SSW,202,3.7,4.7,90,0.00,,,0.04,Rainwise IP-100,2013-06-23 23:05:00,
2013-06-23 16:10:00,52.8,50.0,25.48,SSW,202,0.0,7.0,89,0.00,,,0.04,Rainwise IP-100,2013-06-23 23:10:00,
2013-06-23 16:15:00,52.7,49.0,25.48,SE,135,1.6,7.7,87,0.00,,,0.04,Rainwise IP-100,2013-06-23 23:15:00,
2013-06-23 16:20:00,52.7,49.0,25.48,South,180,0.0,3.3,87,0.00,,,0.04,Rainwise IP-100,2013-06-23 23:20:00,
2013-06-23 16:25:00,52.7,49.0,25.48,SE,135,1.6,4.2,88,0.00,,,0.04,Rainwise IP-100,2013-06-23 23:25:00,
2013-06-23 16:30:00,52.8,50.0,25.48,SE,135,0.0,2.8,90,0.00,,,0.04,Rainwise IP-100,2013-06-23 23:30:00,
2013-06-23 16:35:00,52.9,50.0,25.47,ENE,67,0.0,2.3,90,0.00,,,0.04,Rainwise IP-100,2013-06-23 23:35:00,
2013-06-23 16:40:00,53.0,50.0,25.47,ENE,67,1.2,2.8,91,0.00,,,0.04,Rainwise IP-100,2013-06-23 23:40:00,
2013-06-23 16:45:00,53.0,50.0,25.47,SSE,157,0.0,2.8,91,0.00,,,0.04,Rainwise IP-100,2013-06-23 23:45:00,
2013-06-23 16:50:00,53.2,50.0,25.47,SSE,157,0.0,2.1,91,0.00,,,0.04,Rainwise IP-100,2013-06-23 23:50:00,
2013-06-23 16:55:00,53.5,50.5,25.47,SSE,157,1.2,1.9,91,0.00,,,0.04,Rainwise IP-100,2013-06-23 23:55:00,
2013-06-23 17:00:00,53.5,50.5,25.47,ESE,112,0.0,2.6,91,0.00,,,0.04,Rainwise IP-100,2013-06-24 00:00:00,
2013-06-23 17:05:00,53.5,50.5,25.46,SSW,202,0.0,2.8,90,0.00,,,0.04,Rainwise IP-100,2013-06-24 00:05:00,
2013-06-23 17:10:00,53.6,50.0,25.46,SSW,202,0.0,4.4,89,0.00,,,0.04,Rainwise IP-100,2013-06-24 00:10:00,
2013-06-23 17:15:00,53.7,50.0,25.46,SW,225,2.3,7.0,89,0.06,,,0.05,Rainwise IP-100,2013-06-24 00:15:00,
2013-06-23 17:20:00,53.8,50.5,25.46,SSE,157,0.0,6.5,88,0.06,,,0.05,Rainwise IP-100,2013-06-24 00:20:00,
2013-06-23 17:25:00,53.9,50.5,25.46,SSE,157,0.0,4.9,87,0.00,,,0.05,Rainwise IP-100,2013-06-24 00:25:00,
2013-06-23 17:30:00,54.0,50.5,25.45,SSW,202,0.0,4.7,87,0.00,,,0.05,Rainwise IP-100,2013-06-24 00:30:00,
2013-06-23 17:35:00,54.2,50.5,25.45,SSW,202,2.8,4.0,88,0.00,,,0.05,Rainwise IP-100,2013-06-24 00:35:00,
2013-06-23 17:40:00,54.3,50.5,25.45,SSW,202,1.9,8.4,87,0.00,,,0.05,Rainwise IP-100,2013-06-24 00:40:00,
2013-06-23 17:45:00,54.1,50.0,25.45,SW,225,2.6,6.8,85,0.00,,,0.05,Rainwise IP-100,2013-06-24 00:45:00,
2013-06-23 17:50:00,54.0,50.0,25.45,SSW,202,0.0,4.2,85,0.00,,,0.05,Rainwise IP-100,2013-06-24 00:50:00,
2013-06-23 17:55:00,54.0,50.5,25.45,SSE,157,1.2,4.4,87,0.00,,,0.05,Rainwise IP-100,2013-06-24 00:55:00,
2013-06-23 18:00:00,53.8,50.5,25.45,SSE,157,1.2,2.1,88,0.00,,,0.05,Rainwise IP-100,2013-06-24 01:00:00,
2013-06-23 18:05:00,53.5,50.0,25.45,SSE,157,0.0,2.3,89,0.00,,,0.05,Rainwise IP-100,2013-06-24 01:05:00,
2013-06-23 18:10:00,53.1,50.0,25.45,SSE,157,1.4,2.1,90,0.00,,,0.05,Rainwise IP-100,2013-06-24 01:10:00,
2013-06-23 18:15:00,52.8,50.0,25.44,East,90,0.0,3.0,91,0.00,,,0.05,Rainwise IP-100,2013-06-24 01:15:00,
2013-06-23 18:20:00,52.6,50.5,25.44,ESE,112,0.0,2.1,92,0.00,,,0.05,Rainwise IP-100,2013-06-24 01:20:00,
2013-06-23 18:25:00,52.5,50.5,25.45,ESE,112,0.0,2.3,92,0.00,,,0.05,Rainwise IP-100,2013-06-24 01:25:00,
2013-06-23 18:30:00,52.4,50.0,25.44,SE,135,0.0,2.1,93,0.00,,,0.05,Rainwise IP-100,2013-06-24 01:30:00,
2013-06-23 18:35:00,52.2,50.0,25.44,SSW,202,0.0,3.0,93,0.06,,,0.06,Rainwise IP-100,2013-06-24 01:35:00,
2013-06-23 18:40:00,52.2,50.5,25.44,SE,135,1.2,2.1,94,0.06,,,0.06,Rainwise IP-100,2013-06-24 01:40:00,
2013-06-23 18:45:00,52.0,50.5,25.44,SE,135,1.4,2.3,94,0.00,,,0.06,Rainwise IP-100,2013-06-24 01:45:00,
2013-06-23 18:50:00,51.9,50.5,25.44,SE,135,0.0,2.3,94,0.00,,,0.06,Rainwise IP-100,2013-06-24 01:50:00,
2013-06-23 18:55:00,51.8,50.5,25.44,SE,135,0.0,2.3,94,0.00,,,0.06,Rainwise IP-100,2013-06-24 01:55:00,
2013-06-23 19:00:00,51.8,50.5,25.44,SE,135,0.0,0.0,94,0.00,,,0.06,Rainwise IP-100,2013-06-24 02:00:00,
2013-06-23 19:05:00,51.8,50.5,25.44,SE,135,1.4,1.6,95,0.00,,,0.06,Rainwise IP-100,2013-06-24 02:05:00,
2013-06-23 19:10:00,51.8,50.5,25.43,SE,135,0.0,2.3,95,0.00,,,0.06,Rainwise IP-100,2013-06-24 02:10:00,
2013-06-23 19:15:00,51.7,50.5,25.44,SE,135,1.6,2.1,95,0.00,,,0.06,Rainwise IP-100,2013-06-24 02:15:00,
2013-06-23 19:20:00,51.5,50.5,25.43,SE,135,0.0,2.3,95,0.00,,,0.06,Rainwise IP-100,2013-06-24 02:20:00,
2013-06-23 19:25:00,51.4,50.0,25.43,SE,135,1.9,3.3,95,0.06,,,0.07,Rainwise IP-100,2013-06-24 02:25:00,
2013-06-23 19:30:00,51.3,50.0,25.43,SE,135,1.4,3.3,95,0.06,,,0.07,Rainwise IP-100,2013-06-24 02:30:00,
2013-06-23 19:35:00,51.2,50.0,25.43,SE,135,0.0,2.8,95,0.00,,,0.07,Rainwise IP-100,2013-06-24 02:35:00,
2013-06-23 19:40:00,51.1,50.0,25.43,SE,135,1.2,2.6,96,0.00,,,0.07,Rainwise IP-100,2013-06-24 02:40:00,
2013-06-23 19:45:00,51.0,50.0,25.42,SE,135,0.0,1.9,96,0.00,,,0.07,Rainwise IP-100,2013-06-24 02:45:00,
2013-06-23 19:50:00,50.9,50.0,25.42,SE,135,1.6,1.9,96,0.00,,,0.07,Rainwise IP-100,2013-06-24 02:50:00,
2013-06-23 19:55:00,50.9,50.0,25.42,SE,135,1.6,3.0,96,0.00,,,0.07,Rainwise IP-100,2013-06-24 02:55:00,
2013-06-23 20:00:00,50.7,50.0,25.42,SE,135,1.6,3.3,96,0.00,,,0.07,Rainwise IP-100,2013-06-24 03:00:00,
2013-06-23 20:05:00,50.6,49.0,25.42,SE,135,0.0,3.0,95,0.00,,,0.07,Rainwise IP-100,2013-06-24 03:05:00,
2013-06-23 20:10:00,50.5,49.0,25.42,SE,135,1.4,2.6,95,0.00,,,0.07,Rainwise IP-100,2013-06-24 03:10:00,
2013-06-23 20:15:00,50.3,49.0,25.42,ENE,67,0.0,2.6,95,0.00,,,0.07,Rainwise IP-100,2013-06-24 03:15:00,
2013-06-23 20:20:00,50.1,48.0,25.42,ESE,112,2.8,2.8,95,0.00,,,0.07,Rainwise IP-100,2013-06-24 03:20:00,
2013-06-23 20:25:00,50.1,48.0,25.42,SE,135,2.6,3.3,95,0.00,,,0.07,Rainwise IP-100,2013-06-24 03:25:00,
2013-06-23 20:30:00,50.1,48.0,25.42,SE,135,0.0,3.3,95,0.00,,,0.07,Rainwise IP-100,2013-06-24 03:30:00,
2013-06-23 20:35:00,50.0,48.0,25.42,SE,135,0.0,3.3,95,0.00,,,0.07,Rainwise IP-100,2013-06-24 03:35:00,
2013-06-23 20:40:00,50.0,48.0,25.41,ESE,112,2.3,2.8,95,0.00,,,0.07,Rainwise IP-100,2013-06-24 03:40:00,
2013-06-23 20:45:00,50.0,48.0,25.42,ESE,112,0.0,2.3,94,0.00,,,0.07,Rainwise IP-100,2013-06-24 03:45:00,
2013-06-23 20:50:00,49.9,48.0,25.42,ESE,112,0.0,1.9,94,0.00,,,0.07,Rainwise IP-100,2013-06-24 03:50:00,
2013-06-23 20:55:00,49.8,48.0,25.41,ESE,112,0.0,1.6,95,0.00,,,0.07,Rainwise IP-100,2013-06-24 03:55:00,
2013-06-23 21:00:00,49.7,48.0,25.41,ESE,112,1.4,1.4,95,0.00,,,0.07,Rainwise IP-100,2013-06-24 04:00:00,
2013-06-23 21:01:00,49.7,48.0,25.41,ESE,112,0.0,2.1,95,0.00,,,0.07,Rainwise IP-100,2013-06-24 04:01:00,
2013-06-23 21:06:00,49.5,48.0,25.41,ESE,112,0.0,1.6,95,0.00,,,0.07,Rainwise IP-100,2013-06-24 04:06:00,
2013-06-23 21:11:00,49.2,48.0,25.41,ESE,112,0.0,2.3,96,0.00,,,0.07,Rainwise IP-100,2013-06-24 04:11:00,
2013-06-23 21:16:00,49.1,48.0,25.41,SE,135,0.0,2.6,96,0.00,,,0.07,Rainwise IP-100,2013-06-24 04:16:00,
2013-06-23 21:21:00,49.1,48.0,25.41,SE,135,0.0,3.7,96,0.00,,,0.07,Rainwise IP-100,2013-06-24 04:21:00,
2013-06-23 21:26:00,49.1,47.5,25.41,SE,135,2.6,3.5,95,0.00,,,0.07,Rainwise IP-100,2013-06-24 04:26:00,
2013-06-23 21:31:00,49.2,47.5,25.41,SE,135,0.0,3.3,95,0.00,,,0.07,Rainwise IP-100,2013-06-24 04:31:00,
2013-06-23 21:36:00,49.3,47.5,25.41,SE,135,1.9,3.5,95,0.00,,,0.07,Rainwise IP-100,2013-06-24 04:36:00,
2013-06-23 21:41:00,49.4,47.5,25.42,SE,135,0.0,2.6,94,0.00,,,0.07,Rainwise IP-100,2013-06-24 04:41:00,
2013-06-23 21:46:00,49.4,47.5,25.41,SE,135,1.6,2.8,94,0.00,,,0.07,Rainwise IP-100,2013-06-24 04:46:00,
2013-06-23 21:51:00,49.4,47.5,25.41,SE,135,1.4,3.0,95,0.00,,,0.07,Rainwise IP-100,2013-06-24 04:51:00,
2013-06-23 21:56:00,49.3,47.5,25.41,SE,135,2.3,3.3,95,0.00,,,0.07,Rainwise IP-100,2013-06-24 04:56:00,
2013-06-23 22:01:00,49.2,47.5,25.42,SE,135,0.0,2.8,95,0.00,,,0.07,Rainwise IP-100,2013-06-24 05:01:00,
2013-06-23 22:06:00,49.1,48.0,25.42,SE,135,1.9,2.3,96,0.00,,,0.07,Rainwise IP-100,2013-06-24 05:06:00,
2013-06-23 22:11:00,49.1,48.0,25.41,SE,135,0.0,2.8,96,0.00,,,0.07,Rainwise IP-100,2013-06-24 05:11:00,
2013-06-23 22:16:00,49.2,48.0,25.41,SE,135,0.0,2.1,96,0.00,,,0.07,Rainwise IP-100,2013-06-24 05:16:00,
2013-06-23 22:21:00,49.2,48.0,25.41,SSE,157,0.0,3.3,96,0.00,,,0.07,Rainwise IP-100,2013-06-24 05:21:00,
2013-06-23 22:26:00,49.1,48.0,25.41,SSE,157,1.4,3.0,97,0.00,,,0.07,Rainwise IP-100,2013-06-24 05:26:00,
2013-06-23 22:31:00,49.1,48.0,25.41,SSE,157,1.9,2.8,97,0.00,,,0.07,Rainwise IP-100,2013-06-24 05:31:00,
2013-06-23 22:32:00,49.1,48.0,25.41,SE,135,2.1,2.8,96,0.00,,,0.07,Rainwise IP-100,2013-06-24 05:32:00,
2013-06-23 22:37:00,49.2,48.0,25.41,SE,135,1.2,2.8,96,0.00,,,0.07,Rainwise IP-100,2013-06-24 05:37:00,
2013-06-23 22:42:00,49.3,47.5,25.41,SE,135,0.0,2.6,95,0.00,,,0.07,Rainwise IP-100,2013-06-24 05:42:00,
2013-06-23 22:47:00,49.3,47.5,25.41,South,180,0.0,2.6,95,0.00,,,0.07,Rainwise IP-100,2013-06-24 05:47:00,
2013-06-23 22:52:00,49.4,47.5,25.40,SE,135,0.0,2.3,95,0.00,,,0.07,Rainwise IP-100,2013-06-24 05:52:00,
2013-06-23 22:57:00,49.4,47.5,25.41,SE,135,0.0,2.1,95,0.00,,,0.07,Rainwise IP-100,2013-06-24 05:57:00,
2013-06-23 23:02:00,49.3,47.5,25.41,SW,225,0.0,2.8,95,0.00,,,0.07,Rainwise IP-100,2013-06-24 06:02:00,
2013-06-23 23:07:00,49.2,48.0,25.40,SW,225,0.0,1.4,96,0.00,,,0.07,Rainwise IP-100,2013-06-24 06:07:00,
2013-06-23 23:12:00,49.1,48.0,25.41,SSW,202,0.0,4.2,96,0.00,,,0.07,Rainwise IP-100,2013-06-24 06:12:00,
2013-06-23 23:17:00,49.0,48.0,25.40,SSW,202,0.0,0.0,96,0.00,,,0.07,Rainwise IP-100,2013-06-24 06:17:00,
2013-06-23 23:22:00,49.0,48.0,25.40,SSW,202,0.0,0.0,96,0.00,,,0.07,Rainwise IP-100,2013-06-24 06:22:00,
2013-06-23 23:27:00,49.0,48.0,25.40,SSW,202,0.0,0.0,97,0.00,,,0.07,Rainwise IP-100,2013-06-24 06:27:00,
2013-06-23 23:32:00,48.9,48.0,25.40,SSW,202,0.0,0.0,97,0.00,,,0.07,Rainwise IP-100,2013-06-24 06:32:00,
2013-06-23 23:37:00,48.9,48.0,25.40,SSW,202,0.0,0.0,97,0.00,,,0.07,Rainwise IP-100,2013-06-24 06:37:00,
2013-06-23 23:42:00,48.8,48.0,25.40,SSW,202,1.2,2.6,97,0.00,,,0.07,Rainwise IP-100,2013-06-24 06:42:00,
2013-06-23 23:47:00,48.7,48.0,25.40,SSW,202,0.0,2.1,97,0.00,,,0.07,Rainwise IP-100,2013-06-24 06:47:00,
2013-06-23 23:52:00,48.7,48.0,25.40,SSW,202,0.0,2.3,97,0.00,,,0.07,Rainwise IP-100,2013-06-24 06:52:00,
2013-06-23 23:57:00,48.8,48.0,25.40,SSW,202,2.1,2.8,97,0.00,,,0.07,Rainwise IP-100,2013-06-24 06:57:00,